Home   Weather   Binghamton   Past weeks

Flag for USA Past Weather in Binghamton, New York, USA — Yesterday and Last 2 Weeks

Now
49 °F

Low clouds.


Feels Like: 45 °F
Forecast: 50 / 66 °F
Wind: 8 mph from East

Location: Binghamton Regional Airport

Current Time: Apr 26, 2017 at 12:24:11 am

Latest Report: Apr 25, 2017 at 11:53 pm


Visibility: 10 mi

Pressure: 29.87 "Hg

Humidity: 97%

Dew Point: 48 °F

Location of BinghamtonLocation

Past Weather in Binghamton — Graph

°F

Binghamton Temperature Yesterday

Maximum temperature yesterday: 57 °F (at 3:53 pm)
Minimum temperature yesterday: 46 °F (at 8:53 am)
Average temperature yesterday: 52 °F

High & Low Weather Summary for the Past Weeks

 TemperatureHumidityPressure
High78 °F (Apr 16, 2:53 pm)100% (Apr 20, 6:15 am)30.45 "Hg (Apr 20, 6:15 am)
Low33 °F (Apr 14, 2:53 am)18% (Apr 14, 6:53 pm)29.73 "Hg (Apr 16, 3:53 pm)
Average51 °F67%30.11 "Hg
* Reported Apr 10 10:53 pm — Apr 25 10:53 pm, Binghamton, Weather by CustomWeather, © 2017

Note: Actual official high and low records may vary slightly from our data, if they occured in-between our weather recording intervals... More about our weather records

Advertising

Binghamton Weather History for the Previous 24 Hours

Scroll right to see more
 ConditionsComfort  
Time TempWeatherWind HumidityBarometerVisibility
10:53 pm
Tue, Apr 25
49 °FLow clouds.8 mph97%29.89 "Hg10 mi
10:33 pm50 °FMostly cloudy.9 mph96%29.89 "Hg10 mi
10:00 pm50 °FOvercast.9 mph96%29.89 "Hg10 mi
9:30 pm50 °FLight rain. Fog.10 mph96%29.90 "Hg4 mi
8:53 pm51 °FLight rain. Mostly cloudy.12 mph92%29.91 "Hg7 mi
7:53 pm54 °FLight rain. Overcast.7 mph86%29.92 "Hg10 mi
6:53 pm56 °FOvercast.13 mph77%29.93 "Hg10 mi
5:53 pm56 °FOvercast.12 mph81%29.94 "Hg10 mi
4:53 pm57 °FOvercast.15 mph78%29.95 "Hg10 mi
3:53 pm57 °FOvercast.14 mph74%29.98 "Hg10 mi
2:53 pm55 °FOvercast.12 mph77%30.01 "Hg10 mi
2:11 pm54 °FOvercast.14 mph77%30.03 "Hg10 mi
1:53 pm53 °FOvercast.14 mph80%30.04 "Hg10 mi
12:53 pm51 °FOvercast.13 mph83%30.05 "Hg10 mi
11:53 am50 °FOvercast.14 mph83%30.07 "Hg10 mi
10:53 am49 °FOvercast.13 mph86%30.08 "Hg10 mi
10:22 am47 °FOvercast.13 mph90%30.07 "Hg10 mi
9:53 am46 °FLight rain. Overcast.14 mph93%30.09 "Hg10 mi
8:53 am46 °FLight rain. Fog.16 mph89%30.09 "Hg5 mi
7:53 am48 °FLight rain. Overcast.17 mph74%30.07 "Hg10 mi
6:53 am48 °FLight rain. Cloudy.12 mph63%30.06 "Hg10 mi
5:53 am51 °FOvercast.18 mph42%30.03 "Hg10 mi
4:53 am52 °FOvercast.13 mph43%30.02 "Hg10 mi
3:53 am53 °FOvercast.10 mph39%30.02 "Hg10 mi
2:53 am53 °FOvercast.9 mph45%30.03 "Hg10 mi
1:53 am54 °FMostly cloudy.10 mph43%30.05 "Hg10 mi
12:53 am54 °FOvercast.7 mph45%30.06 "Hg10 mi
Weather by CustomWeather, © 2017

See weather overviewHow to use our weather pages